| time (UTC) | temp C | wind direction | speed KPH | gust KPH | rain 1hr cm | rain 24hr cm | rain mn cm | humidity % | barometer mb |
| 20260503021527 | 4 | 197 | 0.0 | 0.0 | 0.00 | 0.00 | 0.00 | 74 | 1018.0 |
| 20260503020025 | 4 | 197 | 0.0 | 0.0 | 0.00 | 0.00 | 0.00 | 74 | 1018.1 |
| 20260503014523 | 5 | 197 | 0.0 | 0.0 | 0.00 | 0.00 | 0.00 | 72 | 1018.1 |
| 20260503013022 | 5 | 197 | 0.0 | 0.0 | 0.00 | 0.00 | 0.00 | 72 | 1018.1 |
| 20260503011529 | 5 | 197 | 0.0 | 0.0 | 0.00 | 0.00 | 0.00 | 71 | 1018.2 |
| 20260503010017 | 5 | 197 | 0.0 | 0.0 | 0.00 | 0.00 | 0.00 | 71 | 1018.4 |
| 20260503004515 | 5 | 197 | 0.0 | 0.0 | 0.00 | 0.00 | 0.00 | 71 | 1018.3 |
| 20260503003014 | 6 | 197 | 0.0 | 0.0 | 0.00 | 0.00 | 0.00 | 70 | 1018.4 |
| 20260503001512 | 6 | 197 | 0.0 | 0.0 | 0.00 | 0.00 | 0.00 | 69 | 1018.5 |
| 20260503000010 | 6 | 197 | 0.0 | 0.0 | 0.00 | 0.00 | 0.00 | 70 | 1018.6 |
| 20260502234527 | 6 | 197 | 0.0 | 0.0 | 0.00 | 0.00 | 0.00 | 70 | 1018.7 |
| 20260502233006 | 6 | 197 | 0.0 | 0.0 | 0.00 | 0.00 | 0.00 | 68 | 1018.6 |
| 20260502231503 | 6 | 197 | 0.0 | 0.0 | 0.00 | 0.00 | 0.00 | 68 | 1018.8 |
| 20260502230002 | 7 | 197 | 0.0 | 0.0 | 0.00 | 0.00 | 0.00 | 66 | 1018.9 |
| 20260502224559 | 7 | 197 | 0.0 | 0.0 | 0.00 | 0.00 | 0.00 | 65 | 1019.0 |
| 20260502223058 | 7 | 197 | 0.0 | 0.0 | 0.00 | 0.00 | 0.00 | 66 | 1019.0 |
| 20260502221554 | 7 | 197 | 0.0 | 0.0 | 0.00 | 0.00 | 0.00 | 65 | 1019.0 |
| 20260502220135 | 8 | 197 | 0.0 | 0.0 | 0.00 | 0.00 | 0.00 | 64 | 1019.0 |
| 20260502214552 | 8 | 197 | 0.0 | 0.0 | 0.00 | 0.00 | 0.00 | 62 | 1018.9 |
| 20260502213053 | 8 | 197 | 0.0 | 0.0 | 0.00 | 0.00 | 0.00 | 60 | 1018.9 |
| 20260502211552 | 9 | 197 | 0.0 | 0.0 | 0.00 | 0.00 | 0.00 | 60 | 1018.8 |
| 20260502210100 | 10 | 197 | 0.0 | 0.0 | 0.00 | 0.00 | 0.00 | 58 | 1019.0 |
| 20260502204559 | 10 | 197 | 0.0 | 0.0 | 0.00 | 0.00 | 0.00 | 56 | 1019.0 |
| 20260502203153 | 10 | 197 | 0.0 | 0.0 | 0.00 | 0.00 | 0.00 | 56 | 1019.0 |
| 20260502201548 | 11 | 197 | 0.0 | 0.0 | 0.00 | 0.00 | 0.00 | 53 | 1019.0 |
| 20260502200048 | 11 | 197 | 0.0 | 0.0 | 0.00 | 0.00 | 0.00 | 52 | 1019.0 |
| 20260502194553 | 12 | 197 | 0.0 | 0.0 | 0.00 | 0.00 | 0.00 | 51 | 1018.9 |
| 20260502193048 | 12 | 197 | 0.0 | 0.0 | 0.00 | 0.00 | 0.00 | 49 | 1018.8 |
| 20260502191546 | 13 | 197 | 0.0 | 0.0 | 0.00 | 0.00 | 0.00 | 48 | 1018.6 |
| 20260502190056 | 14 | 197 | 0.0 | 0.0 | 0.00 | 0.00 | 0.00 | 46 | 1018.5 |
| 20260502184546 | 15 | 197 | 0.0 | 0.0 | 0.00 | 0.00 | 0.00 | 43 | 1018.4 |
| 20260502183056 | 16 | 197 | 0.0 | 0.0 | 0.00 | 0.00 | 0.00 | 40 | 1018.2 |
| 20260502181546 | 17 | 197 | 0.0 | 0.0 | 0.00 | 0.00 | 0.00 | 37 | 1018.1 |
| 20260502163101 | 22 | 287 | 4.8 | 12.9 | 0.00 | 0.00 | 0.00 | 21 | 1018.3 |
| 20260502161537 | 22 | 277 | 1.6 | 14.5 | 0.00 | 0.00 | 0.00 | 21 | 1018.4 |
| 20260502151535 | 23 | 271 | 1.6 | 11.3 | 0.00 | 0.00 | 0.00 | 21 | 1019.0 |
| 20260502123010 | 22 | 273 | 0.0 | 12.9 | 0.00 | 0.00 | 0.00 | 24 | 1020.8 |
| 20260502121508 | 22 | 151 | 1.6 | 12.9 | 0.00 | 0.00 | 0.00 | 24 | 1020.8 |
| 20260502114502 | 22 | 160 | 3.2 | 14.5 | 0.00 | 0.00 | 0.00 | 22 | 1021.3 |
| 20260502113100 | 22 | 201 | 3.2 | 19.3 | 0.00 | 0.00 | 0.00 | 24 | 1021.4 |
| 20260502111559 | 22 | 279 | 9.7 | 17.7 | 0.00 | 0.00 | 0.00 | 23 | 1021.6 |
| 20260502110059 | 22 | 292 | 3.2 | 17.7 | 0.00 | 0.00 | 0.00 | 24 | 1021.8 |
| 20260502104554 | 22 | 28 | 1.6 | 12.9 | 0.00 | 0.00 | 0.00 | 25 | 1022.0 |
| 20260502103051 | 22 | 17 | 0.0 | 6.4 | 0.00 | 0.00 | 0.00 | 26 | 1022.2 |
| 20260502101550 | 21 | 302 | 3.2 | 14.5 | 0.00 | 0.00 | 0.00 | 25 | 1022.4 |
| 20260502071501 | 16 | 255 | 0.0 | 3.2 | 0.00 | 0.00 | 0.00 | 49 | 1024.2 |
| 20260502070100 | 15 | 255 | 0.0 | 0.0 | 0.00 | 0.00 | 0.00 | 58 | 1024.3 |
| 20260502064554 | 13 | 255 | 0.0 | 0.0 | 0.00 | 0.00 | 0.00 | 61 | 1024.3 |
| 20260502063048 | 11 | 255 | 0.0 | 3.2 | 0.00 | 0.00 | 0.00 | 66 | 1024.5 |
| 20260502061544 | 11 | 255 | 0.0 | 0.0 | 0.00 | 0.00 | 0.00 | 67 | 1024.6 |
| 20260502060040 | 9 | 255 | 0.0 | 0.0 | 0.00 | 0.00 | 0.00 | 71 | 1024.8 |
| 20260502054536 | 8 | 255 | 0.0 | 0.0 | 0.00 | 0.00 | 0.00 | 74 | 1024.8 |
| 20260502053031 | 7 | 255 | 0.0 | 0.0 | 0.00 | 0.00 | 0.00 | 77 | 1024.9 |
| 20260502051528 | 6 | 256 | 0.0 | 0.0 | 0.00 | 0.00 | 0.00 | 81 | 1024.9 |
| 20260502050033 | 5 | 256 | 0.0 | 0.0 | 0.00 | 0.00 | 0.00 | 83 | 1024.8 |
| 20260502044518 | 3 | 256 | 0.0 | 0.0 | 0.00 | 0.00 | 0.00 | 87 | 1024.8 |
| 20260502043013 | 2 | 256 | 0.0 | 0.0 | 0.00 | 0.00 | 0.00 | 84 | 1024.8 |
| 20260502041509 | 2 | 256 | 0.0 | 0.0 | 0.00 | 0.00 | 0.00 | 83 | 1024.7 |
| 20260502040007 | 2 | 256 | 0.0 | 0.0 | 0.00 | 0.00 | 0.00 | 80 | 1024.7 |
| 20260502034505 | 2 | 256 | 0.0 | 0.0 | 0.00 | 0.00 | 0.00 | 78 | 1024.8 |
| 20260502033003 | 2 | 256 | 0.0 | 0.0 | 0.00 | 0.00 | 0.00 | 76 | 1024.7 |
| 20260502031502 | 2 | 256 | 0.0 | 0.0 | 0.00 | 0.00 | 0.00 | 76 | 1024.6 |
| 20260502030002 | 2 | 256 | 0.0 | 0.0 | 0.00 | 0.00 | 0.00 | 74 | 1024.7 |
| 20260502024559 | 2 | 256 | 0.0 | 0.0 | 0.00 | 0.00 | 0.00 | 74 | 1024.7 |
| 20260502023058 | 2 | 256 | 0.0 | 0.0 | 0.00 | 0.00 | 0.00 | 73 | 1024.8 |